Date,TemperatureHighF,TemperatureAvgF,TemperatureLowF,DewpointHighF,DewpointAvgF,DewpointLowF,HumidityHigh,HumidityAvg,HumidityLow,PressureMaxIn,PressureMinIn,WindSpeedMaxMPH,WindSpeedAvgMPH,GustSpeedMaxMPH,PrecipitationSumIn
2013-3-1,35,31,29,28,24,19,91,75,57,30.12,29.98,21,8,21,0.00
2013-3-2,30,28,26,24,18,14,85,66,56,30.12,30.09,17,8,17,0.01
2013-3-3,34,26,17,18,11,3,74,55,26,30.10,30.05,12,6,12,0.00
2013-3-4,40,33,15,27,21,9,84,63,43,30.11,29.97,14,4,14,0.00
2013-3-5,34,31,28,30,28,25,97,88,69,29.98,29.74,22,8,22,0.00
2013-3-6,35,32,29,31,27,25,96,82,74,30.26,29.90,24,10,24,0.11
2013-3-7,42,34,24,27,23,18,83,67,45,30.39,30.25,11,4,11,0.01
2013-3-8,47,32,20,31,21,17,92,65,37,30.48,30.31,8,2,8,0.00
2013-3-9,45,38,28,34,28,18,77,69,53,30.31,29.87,10,3,10,0.00
2013-3-10,60,47,39,49,42,32,97,82,63,29.88,29.65,7,2,7,0.34
2013-3-11,50,41,33,50,39,29,99,92,82,29.79,29.56,18,4,18,0.06
2013-3-12,40,33,29,30,25,18,95,74,49,29.98,29.78,21,8,21,0.00
2013-3-13,36,29,24,20,13,7,78,52,32,30.30,29.98,25,10,25,0.01
2013-3-14,44,33,23,30,19,9,90,59,33,30.30,30.07,12,3,12,0.00
2013-3-15,51,38,28,41,34,26,99,86,54,30.08,29.71,10,2,10,0.11
2013-3-16,37,34,31,37,30,21,99,86,67,30.09,29.65,25,8,25,0.01
2013-3-17,42,33,30,23,20,16,71,59,46,30.18,29.99,19,7,19,0.00
2013-3-18,36,32,24,34,26,10,91,80,52,29.99,29.59,31,8,31,0.17
2013-3-19,37,28,20,15,11,7,66,50,33,30.05,29.78,30,14,30,0.20
2013-3-20,28,24,18,11,4,-4,72,42,27,30.05,29.99,22,11,22,0.00
2013-3-21,36,25,14,14,6,-1,70,45,28,30.02,29.96,20,7,20,0.00
2013-3-22,48,30,16,24,12,8,81,51,23,30.05,29.97,15,3,15,0.00
2013-3-23,44,33,24,24,20,16,80,61,40,30.11,29.98,17,5,17,0.00
2013-3-24,38,33,29,30,22,19,97,66,47,30.00,29.59,28,12,28,0.00
2013-3-25,38,34,29,29,26,23,97,76,60,30.02,29.63,30,15,30,0.05
2013-3-26,45,36,32,31,26,20,96,67,41,30.22,30.02,17,7,19,0.05
2013-3-27,47,38,31,26,21,13,71,53,30,30.29,30.22,17,5,17,0.00
2013-3-28,55,39,25,23,18,14,76,47,22,30.32,30.25,14,3,14,0.00
2013-3-29,57,42,28,31,19,13,76,43,22,30.30,30.20,17,3,17,0.00
2013-3-30,62,46,27,37,27,14,67,48,30,30.23,29.86,11,2,11,0.00
2013-3-31,62,51,40,45,36,24,97,60,29,29.86,29.69,29,9,29,0.02